Weather History for KHAF - May, 2014

Change the Weather History Date:

Sunday, May 4, 2014

  Actual Average Record
Temperature  
Mean Temperature 56 °F -  
Max Temperature 60 °F 59 °F 60 °F (2014)
Min Temperature 53 °F 46 °F 44 °F (2013)
Degree Days  
Heating Degree Days 8    
Growing Degree Days 6 (Base 50)    
Moisture  
Dew Point 54 °F    
Average Humidity 93    
Maximum Humidity 100    
Minimum Humidity 82    
Precipitation  
Precipitation 0.00 in - - ()
Sea Level Pressure  
Sea Level Pressure 30.06 in    
Wind  
Wind Speed 5 mph (NW)    
Max Wind Speed 10 mph    
Max Gust Speed -    
Visibility 5 miles    
Events      
Averages and records for this station are not official NWS values.
T = Trace of Precipitation, MM = Missing Value Source: NWS Daily Summary

Daily Weather History Graph

Daily Weather History Graph

Search for Another Location

Airport or City:

Trip Planner

Search our weather history database for the weather conditions in past years. The results will help you decide how hot, cold, wet, or windy it might be!

Date:

Astronomy

May. 04, 2014 Rise Set
Actual Time 6:11 AM PDT 8:02 PM PDT
Civil Twilight 5:42 AM PDT 8:31 PM PDT
Nautical Twilight 5:08 AM PDT 9:05 PM PDT
Astronomical Twilight 4:31 AM PDT 9:42 PM PDT
Moon 10:40 AM PDT (5/4) 12:11 AM PDT (5/4)
Length of Visible Light 14h 48m
Length of Day
13h 51m
Waxing Crescent, 28% of the Moon is Illuminated
May 4
Waxing Crescent
May 6
First Quarter
May 14
Full
May 21
Last Quarter
May 28
New

Hourly Weather History & Observations

Time (PDT) Temp. Dew Point Humidity Pressure Visibility Wind Dir Wind Speed Gust Speed Precip Events Conditions
12:15 AM 55.4 °F 53.6 °F 94% 30.05 in 5.0 mi NW 6.9 mph - N/A   Overcast
12:35 AM 55.4 °F 53.6 °F 94% 30.06 in 5.0 mi NW 5.8 mph - N/A   Mostly Cloudy
12:55 AM 55.4 °F 53.6 °F 94% 30.05 in 4.0 mi NW 5.8 mph - N/A   Mostly Cloudy
1:15 AM 53.6 °F 53.6 °F 100% 30.05 in 4.0 mi NW 5.8 mph - N/A   Mostly Cloudy
1:35 AM 53.6 °F 53.6 °F 100% 30.05 in 4.0 mi NNW 4.6 mph - N/A   Overcast
1:55 AM 53.6 °F 53.6 °F 100% 30.05 in 4.0 mi Calm Calm - N/A   Overcast
2:15 AM 53.6 °F 53.6 °F 100% 30.04 in 3.0 mi NW 3.5 mph - N/A   Overcast
2:35 AM 53.6 °F 53.6 °F 100% 30.04 in 2.5 mi Calm Calm - N/A   Overcast
2:55 AM 53.6 °F 53.6 °F 100% 30.04 in 2.5 mi Calm Calm - N/A   Overcast
3:15 AM 53.6 °F 53.6 °F 100% 30.04 in 3.0 mi NNW 4.6 mph - N/A   Overcast
3:35 AM 53.6 °F 53.6 °F 100% 30.04 in 4.0 mi NNW 4.6 mph - N/A   Overcast
3:55 AM 53.6 °F 53.6 °F 100% 30.05 in 4.0 mi NW 4.6 mph - N/A   Overcast
4:15 AM 55.4 °F 53.6 °F 94% 30.04 in 4.0 mi NW 5.8 mph - N/A   Overcast
4:35 AM 55.4 °F 53.6 °F 94% 30.04 in 4.0 mi NW 5.8 mph - N/A   Overcast
4:55 AM 55.4 °F 53.6 °F 94% 30.04 in 3.0 mi NW 4.6 mph - N/A   Mist
5:15 AM 55.4 °F 53.6 °F 94% 30.04 in 3.0 mi NW 3.5 mph - N/A   Mist
5:35 AM 53.6 °F 53.6 °F 100% 30.05 in 3.0 mi NW 3.5 mph - N/A   Mist
5:55 AM 53.6 °F 53.6 °F 100% 30.05 in 3.0 mi NW 3.5 mph - N/A   Mist
6:15 AM 53.6 °F 53.6 °F 100% 30.05 in 3.0 mi Calm Calm - N/A   Mist
6:35 AM 55.4 °F 53.6 °F 94% 30.05 in 2.0 mi NW 3.5 mph - N/A   Overcast
6:55 AM 55.4 °F 53.6 °F 94% 30.05 in 1.8 mi NNW 4.6 mph - N/A   Overcast
7:15 AM 55.4 °F 53.6 °F 94% 30.06 in 1.5 mi NW 4.6 mph - N/A   Overcast
7:35 AM 55.4 °F 53.6 °F 94% 30.06 in 3.0 mi NW 5.8 mph - N/A   Overcast
7:55 AM 55.4 °F 55.4 °F 100% 30.06 in 2.5 mi NW 4.6 mph - N/A   Overcast
8:15 AM 55.4 °F 55.4 °F 100% 30.07 in 2.5 mi NNW 4.6 mph - N/A   Overcast
8:35 AM 55.4 °F 55.4 °F 100% 30.07 in 3.0 mi WNW 3.5 mph - N/A   Mostly Cloudy
8:55 AM - - N/A% - - North - - N/A   Unknown
9:15 AM 57.2 °F 55.4 °F 94% 30.08 in 3.0 mi NW 5.8 mph - N/A   Mist
9:35 AM 57.2 °F 55.4 °F 94% 30.08 in 3.0 mi WNW 4.6 mph - N/A   Mostly Cloudy
9:55 AM - - N/A% - - North - - N/A   Unknown
10:15 AM 57.2 °F 55.4 °F 94% 30.08 in 3.0 mi WNW 5.8 mph - N/A   Mist
10:35 AM 59.0 °F 55.4 °F 88% 30.09 in 3.0 mi WSW 6.9 mph - N/A   Clear
10:55 AM 57.2 °F 55.4 °F 94% 30.09 in 3.0 mi West 4.6 mph - N/A   Clear
11:15 AM 59.0 °F 55.4 °F 88% 30.09 in 4.0 mi SW 8.1 mph - N/A   Mist
11:35 AM 59.0 °F 55.4 °F 88% 30.09 in 4.0 mi West 5.8 mph - N/A   Clear
11:55 AM 59.0 °F 55.4 °F 88% 30.09 in 5.0 mi West 8.1 mph - N/A   Partly Cloudy
12:15 PM 59.0 °F 55.4 °F 88% 30.09 in 5.0 mi West 8.1 mph - N/A   Scattered Clouds
12:35 PM 59.0 °F 55.4 °F 88% 30.09 in 5.0 mi West 6.9 mph - N/A   Haze
12:55 PM 59.0 °F 55.4 °F 88% 30.09 in 5.0 mi West 6.9 mph - N/A   Haze
1:15 PM 59.0 °F 55.4 °F 88% 30.09 in 5.0 mi West 6.9 mph - N/A   Haze
1:35 PM 59.0 °F 55.4 °F 88% 30.09 in 5.0 mi West 6.9 mph - N/A   Partly Cloudy
1:55 PM 59.0 °F 55.4 °F 88% 30.09 in 5.0 mi WNW 6.9 mph - N/A   Haze
2:15 PM 60.8 °F 57.2 °F 88% 30.09 in 5.0 mi West 6.9 mph - N/A   Clear
2:35 PM 60.8 °F 55.4 °F 82% 30.09 in 5.0 mi West 6.9 mph - N/A   Haze
2:55 PM 59.0 °F 55.4 °F 88% 30.08 in 5.0 mi West 6.9 mph - N/A   Partly Cloudy
3:15 PM 59.0 °F 55.4 °F 88% 30.08 in 5.0 mi West 8.1 mph - N/A   Clear
3:35 PM 59.0 °F 55.4 °F 88% 30.08 in 7.0 mi WNW 9.2 mph - N/A   Clear
3:55 PM 59.0 °F 55.4 °F 88% 30.07 in 7.0 mi NW 9.2 mph - N/A   Clear
4:15 PM 59.0 °F 55.4 °F 88% 30.07 in 7.0 mi WNW 9.2 mph - N/A   Partly Cloudy
4:35 PM 59.0 °F 55.4 °F 88% 30.06 in 7.0 mi WNW 10.4 mph - N/A   Partly Cloudy
4:55 PM 59.0 °F 55.4 °F 88% 30.06 in 7.0 mi NW 10.4 mph - N/A   Partly Cloudy
5:15 PM 59.0 °F 55.4 °F 88% 30.05 in 6.0 mi NW 10.4 mph - N/A   Clear
5:35 PM 59.0 °F 53.6 °F 82% 30.06 in 8.0 mi NW 10.4 mph - N/A   Clear
5:55 PM 59.0 °F 53.6 °F 82% 30.05 in 7.0 mi NW 10.4 mph - N/A   Clear
6:15 PM 59.0 °F 53.6 °F 82% 30.05 in 7.0 mi NW 10.4 mph - N/A   Clear
6:35 PM 57.2 °F 53.6 °F 88% 30.05 in 7.0 mi NW 10.4 mph - N/A   Clear
6:55 PM 57.2 °F 53.6 °F 88% 30.05 in 7.0 mi NW 9.2 mph - N/A   Clear
7:15 PM 57.2 °F 53.6 °F 88% 30.05 in 6.0 mi NW 8.1 mph - N/A   Clear
7:35 PM 55.4 °F 53.6 °F 94% 30.04 in 6.0 mi NNW 6.9 mph - N/A   Clear
7:55 PM 55.4 °F 53.6 °F 94% 30.05 in 6.0 mi NW 5.8 mph - N/A   Clear
8:15 PM 55.4 °F 53.6 °F 94% 30.05 in 6.0 mi NW 5.8 mph - N/A   Clear
8:35 PM 55.4 °F 53.6 °F 94% 30.05 in 6.0 mi NNW 3.5 mph - N/A   Scattered Clouds
8:55 PM 55.4 °F 53.6 °F 94% 30.06 in 6.0 mi Calm Calm - N/A   Mist
9:15 PM 55.4 °F 53.6 °F 94% 30.06 in 5.0 mi NW 3.5 mph - N/A   Overcast
9:35 PM 55.4 °F 53.6 °F 94% 30.06 in 7.0 mi NW 4.6 mph - N/A   Overcast
9:55 PM 55.4 °F 53.6 °F 94% 30.07 in 5.0 mi NW 5.8 mph - N/A   Overcast
10:15 PM 55.4 °F 53.6 °F 94% 30.07 in 5.0 mi NW 5.8 mph - N/A   Overcast
10:35 PM 55.4 °F 53.6 °F 94% 30.07 in 6.0 mi NW 6.9 mph - N/A   Overcast
10:55 PM 55.4 °F 53.6 °F 94% 30.07 in 6.0 mi NW 5.8 mph - N/A   Mist
11:15 PM 55.4 °F 53.6 °F 94% 30.07 in 5.0 mi NW 4.6 mph - N/A   Mist
11:35 PM 55.4 °F 53.6 °F 94% 30.07 in 5.0 mi NW 3.5 mph - N/A   Mist
11:55 PM 55.4 °F 53.6 °F 94% 30.08 in 5.0 mi NW 3.5 mph - N/A   Mist